Torna al catalogo

DELTA 1 DEB

AttivoLEO
NORAD 42090·DEBRIS·🇺🇸 United States

Lanciato Dec 15, 1968 da Vandenberg Space Force Base

Loading…

Prossimi Passaggi (prossime 24 ore)

TLE

AggiornatoSource: Space-Track

Epoca: Sep 14, 2026, 20:58 UTC

1 42090U 68114S   26257.87413137  .00000083  00000-0  88807-3 0  9996
2 42090 101.4214  31.8262 0110102  39.1366 111.8149 12.41938461186824

Traccia DELTA 1 DEB in tempo reale con AllMySat

Download on the App Store